Location: Unnamed
(47.9062°N, 20.3783°E)
Time: 08:33:01
(UTC+01:00)

ISS - Visible Passes

Search period start: 18 January 2026 00:00
Search period end: 28 January 2026 00:00
Orbit: 413 x 424 km, 51.6° (Epoch: 17 January)

Date Brightness Start Highest point End Pass type
(mag) Time Alt. Az. Time Alt. Az. Time Alt. Az.
18 Jan -3.4 17:52:54 10° W 17:56:12 54° NNW 17:57:12 37° NE visible
18 Jan -0.2 19:30:06 10° WNW 19:30:08 10° WNW 19:30:08 10° WNW visible
19 Jan -3.6 17:05:01 10° WSW 17:08:20 68° NNW 17:11:20 12° ENE visible
19 Jan -2.1 18:42:13 10° WNW 18:44:16 30° NW 18:44:16 30° NW visible
20 Jan -3.1 17:54:16 10° WNW 17:57:29 42° N 17:58:23 33° NE visible
20 Jan -0.2 19:31:17 10° WNW 19:31:20 10° WNW 19:31:20 10° WNW visible
21 Jan -3.2 17:06:17 10° W 17:09:31 46° N 17:12:29 12° ENE visible
21 Jan -2.1 18:43:24 10° WNW 18:45:26 31° NW 18:45:26 31° NW visible
22 Jan -3.2 17:55:28 10° WNW 17:58:42 43° N 17:59:32 35° NE visible
22 Jan -0.3 19:32:18 10° WNW 19:32:28 11° WNW 19:32:28 11° WNW visible
23 Jan -3.1 17:07:28 10° WNW 17:10:40 41° N 17:13:39 11° ENE visible
23 Jan -2.5 18:44:22 10° WNW 18:46:36 38° WNW 18:46:36 38° WNW visible
24 Jan -3.7 17:56:26 10° WNW 17:59:45 59° NNE 18:00:45 38° ENE visible
24 Jan -0.4 19:33:19 10° WNW 19:33:42 12° W 19:33:42 12° W visible
25 Jan -3.4 17:08:26 10° WNW 17:11:43 48° NNE 17:14:58 10° E visible
25 Jan -2.7 18:45:16 10° WNW 18:47:55 45° WSW 18:47:55 45° WSW visible
26 Jan -3.8 17:57:14 10° WNW 18:00:34 80° SSW 18:02:14 28° ESE visible
26 Jan -0.4 19:34:47 10° W 19:35:11 12° WSW 19:35:11 12° WSW visible
27 Jan -3.8 17:09:12 10° WNW 17:12:33 75° NNE 17:15:54 10° ESE visible
27 Jan -1.8 18:46:19 10° W 18:49:05 24° SW 18:49:38 23° SSW visible
